Tracking 18624 objects as of 26-April-2017
HD Live streaming from Space Station
objects crossing your sky now

HELIOS 1B

Track HELIOS 1B now!
10-day predictions
HELIOS 1B is classified as:


NORAD ID: 25977
Int'l Code: 1999-064A
Perigee: 627.5 km
Apogee: 631.2 km
Inclination: 98.1 °
Period: 97.1 minutes
Semi major axis: 7000 km
RCS: 8.0113 m2 (large)
Launch date: December 3, 1999
Source: France (FR)
Launch site: FRENCH GUIANA (FRGUI)

Helios 1B was a French military photo-reconnoissance spacecraft launched by an Ariane rocket at 16:22 UT.
Your satellite tracking list
Your tracking list is empty





NASA's NSSDC Master Catalog

Two Line Element Set (TLE):
1 25977U 99064A   17115.84437541 +.00000299 +00000-0 +44370-4 0  9991
2 25977 098.1445 226.4090 0002651 094.1508 266.0007 14.82251613204951
Source of the keplerian elements: AFSPC